DLH55U EDDF-LFMN

Flight info

Callsign DLH55U
Flight time 1h 10m
Altitude 31000
Route ANEKI2L/18 ANEKI Y163 NATOR/N0448F370 DCT TRA DCT RIPUS DCT GERSA DCT SOSON DCT ODINA DCT ENOBA/N0386F190 Z185 BORDI BORDI8R
Aircraft A320/M-SDE3FGHIRWY/LB1

Departure

Time 2026-04-14 21:11
Airport Frankfurt Main Airport (EDDF)

Arrival

Time 2026-04-14 22:21
Airport Nice-Côte d'Azur Airport (LFMN)
Time Latitude Longitude Altitude Speed Heading
2026-04-14 20:31 50.04687 8.56701 363 ft 0 kts 115°
2026-04-14 20:55 50.04687 8.56700 356 ft 0 kts 115°
2026-04-14 20:57 50.04687 8.56701 356 ft 0 kts 115°
2026-04-14 20:58 50.04691 8.56686 361 ft 2 kts 115°
2026-04-14 20:58 50.04698 8.56663 359 ft 2 kts 115°
2026-04-14 20:58 50.04706 8.56635 358 ft 4 kts 113°
2026-04-14 20:58 50.04726 8.56621 362 ft 4 kts 208°
2026-04-14 20:59 50.04748 8.56643 348 ft 4 kts 209°
2026-04-14 20:59 50.04751 8.56645 347 ft 0 kts 209°
2026-04-14 21:03 50.04725 8.56598 361 ft 15 kts 232°
2026-04-14 21:03 50.04670 8.56452 360 ft 16 kts 250°
2026-04-14 21:03 50.04632 8.56289 356 ft 16 kts 250°
2026-04-14 21:04 50.04597 8.56117 360 ft 17 kts 269°
2026-04-14 21:04 50.04559 8.55949 357 ft 17 kts 216°
2026-04-14 21:04 50.04528 8.55928 363 ft 1 kts 200°
2026-04-14 21:04 50.04479 8.55901 360 ft 9 kts 199°
2026-04-14 21:05 50.04423 8.55885 361 ft 8 kts 172°
2026-04-14 21:05 50.04371 8.55912 359 ft 9 kts 160°
2026-04-14 21:05 50.04289 8.55956 359 ft 8 kts 170°
2026-04-14 21:05 50.04205 8.55918 353 ft 16 kts 187°
2026-04-14 21:06 50.04095 8.55968 359 ft 16 kts 167°
2026-04-14 21:06 50.04026 8.55856 350 ft 16 kts 250°
2026-04-14 21:06 50.03986 8.55681 351 ft 18 kts 250°
2026-04-14 21:06 50.03940 8.55491 351 ft 20 kts 250°
2026-04-14 21:07 50.03891 8.55280 357 ft 21 kts 251°
2026-04-14 21:07 50.03837 8.55057 357 ft 23 kts 246°
2026-04-14 21:07 50.03777 8.54816 355 ft 25 kts 251°
2026-04-14 21:07 50.03715 8.54550 349 ft 28 kts 249°
2026-04-14 21:08 50.03645 8.54260 347 ft 29 kts 249°
2026-04-14 21:08 50.03573 8.53957 338 ft 31 kts 250°
2026-04-14 21:08 50.03496 8.53642 338 ft 32 kts 249°
2026-04-14 21:08 50.03431 8.53364 334 ft 20 kts 250°
2026-04-14 21:09 50.03374 8.53130 332 ft 26 kts 249°
2026-04-14 21:09 50.03305 8.52845 334 ft 29 kts 250°
2026-04-14 21:09 50.03188 8.52602 334 ft 21 kts 204°
2026-04-14 21:09 50.03152 8.52596 334 ft 0 kts 177°
2026-04-14 21:10 50.03094 8.52599 335 ft 36 kts 179°
2026-04-14 21:10 50.02582 8.52606 333 ft 107 kts 180°
2026-04-14 21:10 50.01644 8.52612 335 ft 160 kts 180°
2026-04-14 21:10 50.00443 8.52641 697 ft 179 kts 178°
2026-04-14 21:11 49.99181 8.52699 1398 ft 185 kts 176°
2026-04-14 21:11 49.97881 8.52783 2108 ft 189 kts 175°
2026-04-14 21:11 49.96563 8.52895 2829 ft 191 kts 174°
2026-04-14 21:11 49.95222 8.53033 3566 ft 190 kts 174°
2026-04-14 21:12 49.93880 8.53146 4279 ft 201 kts 175°
2026-04-14 21:12 49.92426 8.53212 5027 ft 217 kts 177°
2026-04-14 21:12 49.90879 8.53269 5867 ft 228 kts 177°
2026-04-14 21:12 49.89266 8.53318 6782 ft 236 kts 178°
2026-04-14 21:13 49.87603 8.53360 7694 ft 243 kts 179°
2026-04-14 21:13 49.85861 8.53392 8720 ft 257 kts 180°
2026-04-14 21:13 49.84036 8.53414 9859 ft 267 kts 181°
2026-04-14 21:14 49.80245 8.53420 12110 ft 277 kts 180°
2026-04-14 21:14 49.78294 8.53404 13133 ft 286 kts 180°
2026-04-14 21:14 49.76272 8.53359 14099 ft 295 kts 181°
2026-04-14 21:14 49.74200 8.53266 14990 ft 303 kts 181°
2026-04-14 21:15 49.72004 8.53146 15461 ft 328 kts 182°
2026-04-14 21:15 49.69642 8.52964 15874 ft 352 kts 183°
2026-04-14 21:15 49.67111 8.52708 16200 ft 377 kts 184°
2026-04-14 21:15 49.64414 8.52383 16434 ft 400 kts 185°
2026-04-14 21:16 49.61572 8.52008 16809 ft 413 kts 185°
2026-04-14 21:16 49.58717 8.51614 17785 ft 410 kts 185°
2026-04-14 21:16 49.55888 8.51226 18755 ft 407 kts 185°
2026-04-14 21:16 49.53080 8.50847 19633 ft 403 kts 185°
2026-04-14 21:17 49.50301 8.50477 20543 ft 399 kts 185°
2026-04-14 21:17 49.47549 8.50113 21474 ft 395 kts 185°
2026-04-14 21:17 49.44782 8.49748 22029 ft 404 kts 185°
2026-04-14 21:17 49.41968 8.49379 22718 ft 405 kts 185°
2026-04-14 21:18 49.39172 8.49015 23591 ft 402 kts 185°
2026-04-14 21:18 49.36401 8.48654 24368 ft 398 kts 185°
2026-04-14 21:18 49.34577 8.48417 24868 ft 395 kts 185°
2026-04-14 21:18 49.31853 8.48060 25628 ft 390 kts 185°
2026-04-14 21:19 49.29177 8.47708 26401 ft 382 kts 185°
2026-04-14 21:19 49.26565 8.47362 27218 ft 372 kts 185°
2026-04-14 21:19 49.24018 8.47027 28046 ft 361 kts 185°
2026-04-14 21:19 49.21552 8.46707 28833 ft 353 kts 185°
2026-04-14 21:20 49.19094 8.46390 29202 ft 356 kts 185°
2026-04-14 21:20 49.16617 8.46073 29557 ft 359 kts 185°
2026-04-14 21:20 49.14118 8.45752 29906 ft 362 kts 185°
2026-04-14 21:20 49.11597 8.45427 30252 ft 365 kts 185°
2026-04-14 21:21 49.09060 8.45099 30551 ft 368 kts 185°
2026-04-14 21:21 49.06508 8.44680 30841 ft 370 kts 190°
2026-04-14 21:21 49.03980 8.43894 31133 ft 372 kts 194°
2026-04-14 21:21 49.01435 8.42969 31238 ft 382 kts 194°
2026-04-14 21:22 48.98814 8.42024 31260 ft 393 kts 194°
2026-04-14 21:22 48.96107 8.41051 31265 ft 406 kts 194°
2026-04-14 21:22 48.93313 8.40050 31266 ft 418 kts 194°
2026-04-14 21:22 48.90440 8.39023 31267 ft 431 kts 194°
2026-04-14 21:23 48.87481 8.37965 31270 ft 442 kts 194°
2026-04-14 21:23 48.84444 8.36879 31271 ft 454 kts 194°
2026-04-14 21:23 48.78161 8.34645 31271 ft 474 kts 194°
2026-04-14 21:24 48.71615 8.32323 31272 ft 492 kts 194°
2026-04-14 21:24 48.64838 8.29919 31275 ft 508 kts 194°
2026-04-14 21:25 48.57898 8.27468 31275 ft 514 kts 194°
2026-04-14 21:25 48.50900 8.25293 31275 ft 514 kts 186°
2026-04-14 21:26 48.43781 8.25644 31273 ft 512 kts 169°
2026-04-14 21:26 48.36752 8.27376 31278 ft 512 kts 169°
2026-04-14 21:27 48.29714 8.29074 31281 ft 512 kts 169°
2026-04-14 21:27 48.22682 8.30757 31278 ft 511 kts 169°
2026-04-14 21:28 48.15659 8.32438 31279 ft 511 kts 169°
2026-04-14 21:28 48.08639 8.34150 31280 ft 511 kts 169°
2026-04-14 21:29 48.01623 8.35848 31280 ft 510 kts 169°
2026-04-14 21:29 47.94619 8.37534 31279 ft 510 kts 169°
2026-04-14 21:30 47.87614 8.39223 31276 ft 509 kts 169°
2026-04-14 21:30 47.80625 8.40907 31267 ft 509 kts 169°
2026-04-14 21:31 47.73642 8.42579 31261 ft 508 kts 169°
2026-04-14 21:31 47.66659 8.44177 31255 ft 507 kts 171°
2026-04-14 21:32 47.59641 8.45285 31254 ft 507 kts 174°
2026-04-14 21:32 47.52616 8.46151 31249 ft 506 kts 174°
2026-04-14 21:33 47.45600 8.47088 31247 ft 506 kts 173°
2026-04-14 21:33 47.38607 8.48126 31245 ft 505 kts 173°
2026-04-14 21:34 47.31613 8.49188 31243 ft 505 kts 173°
2026-04-14 21:34 47.24623 8.50215 31246 ft 505 kts 173°
2026-04-14 21:35 47.17637 8.51217 31245 ft 504 kts 174°
2026-04-14 21:35 47.10653 8.52232 31240 ft 503 kts 173°
2026-04-14 21:36 47.03687 8.53243 31248 ft 503 kts 174°
2026-04-14 21:36 46.96722 8.54244 31250 ft 502 kts 174°
2026-04-14 21:37 46.89770 8.55243 31253 ft 502 kts 174°
2026-04-14 21:37 46.82834 8.56241 31244 ft 500 kts 174°
2026-04-14 21:38 46.75907 8.57245 31231 ft 499 kts 174°
2026-04-14 21:38 46.68991 8.58237 31213 ft 499 kts 174°
2026-04-14 21:39 46.62081 8.59227 31197 ft 499 kts 174°
2026-04-14 21:39 46.55171 8.60205 31186 ft 498 kts 174°
2026-04-14 21:40 46.48276 8.61171 31173 ft 497 kts 174°
2026-04-14 21:40 46.41389 8.62141 31138 ft 496 kts 174°
2026-04-14 21:41 46.34508 8.63119 31142 ft 497 kts 174°
2026-04-14 21:41 46.27639 8.64081 31129 ft 496 kts 174°
2026-04-14 21:42 46.20777 8.65039 31130 ft 495 kts 173°
2026-04-14 21:42 46.13927 8.66006 31132 ft 494 kts 174°
2026-04-14 21:43 46.07087 8.65813 31129 ft 492 kts 188°
2026-04-14 21:43 46.00303 8.64405 31117 ft 493 kts 188°
2026-04-14 21:44 45.93577 8.63025 31109 ft 495 kts 188°
2026-04-14 21:44 45.86752 8.61645 31103 ft 496 kts 188°
2026-04-14 21:45 45.79916 8.60266 31114 ft 497 kts 188°
2026-04-14 21:45 45.73023 8.58873 31115 ft 497 kts 188°
2026-04-14 21:46 45.66217 8.57489 31139 ft 497 kts 188°
2026-04-14 21:46 45.59316 8.56088 31138 ft 497 kts 188°
2026-04-14 21:47 45.52468 8.54713 31143 ft 497 kts 188°
2026-04-14 21:47 45.45613 8.53348 31140 ft 497 kts 188°
2026-04-14 21:48 45.38817 8.51993 31133 ft 496 kts 188°
2026-04-14 21:48 45.31935 8.50612 31130 ft 496 kts 188°
2026-04-14 21:49 45.25140 8.49253 31120 ft 496 kts 188°
2026-04-14 21:49 45.18304 8.47895 31113 ft 496 kts 188°
2026-04-14 21:50 45.11470 8.46536 31111 ft 496 kts 188°
2026-04-14 21:50 45.04627 8.45190 31108 ft 496 kts 187°
2026-04-14 21:51 44.97790 8.43852 31105 ft 496 kts 188°
2026-04-14 21:51 44.90953 8.42499 31103 ft 496 kts 188°
2026-04-14 21:52 44.84109 8.41147 31101 ft 496 kts 188°
2026-04-14 21:52 44.77267 8.39807 31101 ft 496 kts 187°
2026-04-14 21:53 44.70432 8.38480 31097 ft 496 kts 187°
2026-04-14 21:53 44.63594 8.37154 31089 ft 496 kts 187°
2026-04-14 21:54 44.56758 8.35817 31084 ft 496 kts 188°
2026-04-14 21:54 44.49921 8.34484 31077 ft 496 kts 187°
2026-04-14 21:55 44.43046 8.33153 31073 ft 496 kts 187°
2026-04-14 21:55 44.36244 8.31580 31060 ft 496 kts 196°
2026-04-14 21:56 44.30038 8.27506 31052 ft 494 kts 216°
2026-04-14 21:56 44.25838 8.22137 30652 ft 494 kts 232°
2026-04-14 21:57 44.23840 8.18281 30207 ft 488 kts 237°
2026-04-14 21:57 44.21923 8.14385 29884 ft 486 kts 237°
2026-04-14 21:57 44.20008 8.10519 29539 ft 482 kts 237°
2026-04-14 21:57 44.18111 8.06710 28809 ft 476 kts 236°
2026-04-14 21:58 44.16226 8.02938 27979 ft 472 kts 236°
2026-04-14 21:58 44.14353 7.99202 27193 ft 469 kts 236°
2026-04-14 21:58 44.12492 7.95496 26419 ft 465 kts 236°
2026-04-14 21:58 44.10653 7.91831 25669 ft 461 kts 236°
2026-04-14 21:59 44.08825 7.88185 24934 ft 457 kts 236°
2026-04-14 21:59 44.07013 7.84566 24215 ft 454 kts 236°
2026-04-14 21:59 44.05207 7.80972 23361 ft 454 kts 236°
2026-04-14 21:59 44.03394 7.77366 22393 ft 455 kts 236°
2026-04-14 22:00 44.01583 7.73766 21489 ft 455 kts 236°
2026-04-14 22:00 43.99771 7.70166 20589 ft 454 kts 236°
2026-04-14 22:00 43.97962 7.66576 19709 ft 454 kts 235°
2026-04-14 22:00 43.96148 7.62983 18853 ft 453 kts 235°
2026-04-14 22:01 43.94339 7.59408 17988 ft 452 kts 235°
2026-04-14 22:01 43.92535 7.55848 17307 ft 446 kts 235°
2026-04-14 22:01 43.90787 7.52395 17060 ft 430 kts 235°
2026-04-14 22:01 43.89086 7.49063 16713 ft 418 kts 233°
2026-04-14 22:02 43.87054 7.46244 16178 ft 412 kts 216°
2026-04-14 22:02 43.84563 7.44379 15646 ft 405 kts 199°
2026-04-14 22:02 43.81834 7.43585 15118 ft 399 kts 182°
2026-04-14 22:02 43.79100 7.43890 14607 ft 393 kts 165°
2026-04-14 22:03 43.76582 7.45247 14113 ft 387 kts 148°
2026-04-14 22:03 43.74389 7.47443 13577 ft 383 kts 140°
2026-04-14 22:03 43.72311 7.49723 13024 ft 380 kts 138°
2026-04-14 22:03 43.70403 7.52207 12481 ft 375 kts 130°
2026-04-14 22:04 43.68751 7.54958 11944 ft 370 kts 125°
2026-04-14 22:04 43.66993 7.57545 11410 ft 369 kts 134°
2026-04-14 22:04 43.65098 7.59918 10892 ft 367 kts 135°
2026-04-14 22:04 43.63171 7.62209 10387 ft 364 kts 136°
2026-04-14 22:05 43.61243 7.64460 9881 ft 362 kts 136°
2026-04-14 22:05 43.59331 7.66698 9318 ft 359 kts 136°
2026-04-14 22:05 43.57440 7.68935 8777 ft 358 kts 136°
2026-04-14 22:05 43.55569 7.71180 8241 ft 356 kts 135°
2026-04-14 22:06 43.53712 7.73429 7713 ft 354 kts 135°
2026-04-14 22:06 43.51869 7.75668 7188 ft 353 kts 135°
2026-04-14 22:06 43.50030 7.77896 6680 ft 351 kts 135°
2026-04-14 22:06 43.48206 7.80102 6173 ft 346 kts 135°
2026-04-14 22:07 43.46436 7.82232 6006 ft 329 kts 135°
2026-04-14 22:07 43.44764 7.84236 6018 ft 308 kts 135°
2026-04-14 22:07 43.43195 7.86108 6022 ft 290 kts 136°
2026-04-14 22:07 43.41454 7.87412 6031 ft 290 kts 165°
2026-04-14 22:08 43.39453 7.87265 6031 ft 293 kts 200°
2026-04-14 22:08 43.37799 7.85685 6029 ft 292 kts 230°
2026-04-14 22:08 43.36722 7.83348 6007 ft 290 kts 251°
2026-04-14 22:08 43.36340 7.80679 5756 ft 282 kts 275°
2026-04-14 22:09 43.36649 7.78062 5500 ft 277 kts 287°
2026-04-14 22:09 43.37067 7.75477 5253 ft 276 kts 287°
2026-04-14 22:09 43.37482 7.72902 5040 ft 275 kts 286°
2026-04-14 22:09 43.37884 7.70353 4966 ft 267 kts 286°
2026-04-14 22:10 43.38265 7.67898 4895 ft 262 kts 286°
2026-04-14 22:10 43.38642 7.65468 4585 ft 258 kts 286°
2026-04-14 22:10 43.39015 7.63066 4278 ft 256 kts 285°
2026-04-14 22:10 43.39385 7.60691 4030 ft 251 kts 285°
2026-04-14 22:11 43.39747 7.58373 3974 ft 247 kts 285°
2026-04-14 22:11 43.40109 7.56066 3983 ft 247 kts 285°
2026-04-14 22:11 43.40472 7.53756 3979 ft 247 kts 285°
2026-04-14 22:11 43.40835 7.51441 3815 ft 247 kts 285°
2026-04-14 22:12 43.41193 7.49147 3633 ft 243 kts 284°
2026-04-14 22:12 43.41541 7.46902 3470 ft 236 kts 284°
2026-04-14 22:12 43.41878 7.44722 3291 ft 230 kts 284°
2026-04-14 22:12 43.42208 7.42595 3125 ft 224 kts 283°
2026-04-14 22:13 43.42525 7.40535 3010 ft 217 kts 283°
2026-04-14 22:13 43.42831 7.38547 2987 ft 210 kts 283°
2026-04-14 22:13 43.43132 7.36587 2987 ft 208 kts 283°
2026-04-14 22:13 43.43427 7.34660 3019 ft 204 kts 283°
2026-04-14 22:14 43.43717 7.32764 2999 ft 200 kts 283°
2026-04-14 22:14 43.44004 7.30904 2994 ft 198 kts 283°
2026-04-14 22:14 43.44289 7.29056 2996 ft 197 kts 283°
2026-04-14 22:14 43.44568 7.27226 3008 ft 195 kts 282°
2026-04-14 22:15 43.44848 7.25401 2995 ft 195 kts 283°
2026-04-14 22:15 43.45126 7.23579 2923 ft 194 kts 282°
2026-04-14 22:15 43.45404 7.21767 2848 ft 193 kts 282°
2026-04-14 22:15 43.45682 7.19966 2779 ft 192 kts 282°
2026-04-14 22:16 43.46050 7.18208 2697 ft 191 kts 297°
2026-04-14 22:16 43.46905 7.16838 2618 ft 190 kts 324°
2026-04-14 22:16 43.48118 7.16169 2548 ft 189 kts 352°
2026-04-14 22:16 43.49422 7.16044 2484 ft 187 kts 356°
2026-04-14 22:17 43.50701 7.15927 2407 ft 178 kts 355°
2026-04-14 22:17 43.51924 7.15809 2349 ft 175 kts 355°
2026-04-14 22:17 43.53115 7.15692 2266 ft 169 kts 355°
2026-04-14 22:17 43.54278 7.15578 2197 ft 167 kts 355°
2026-04-14 22:18 43.55423 7.15447 2103 ft 163 kts 353°
2026-04-14 22:18 43.56541 7.15269 1983 ft 161 kts 351°
2026-04-14 22:18 43.57642 7.15038 1826 ft 159 kts 349°
2026-04-14 22:18 43.58711 7.14801 1543 ft 153 kts 352°
2026-04-14 22:19 43.59754 7.14724 1352 ft 149 kts
2026-04-14 22:19 43.61685 7.15653 1190 ft 152 kts 34°
2026-04-14 22:19 43.62450 7.16646 936 ft 149 kts 45°
2026-04-14 22:20 43.63165 7.17607 687 ft 139 kts 40°
2026-04-14 22:20 43.63855 7.18589 495 ft 143 kts 42°
2026-04-14 22:20 43.64549 7.19523 273 ft 139 kts 43°
2026-04-14 22:20 43.65218 7.20454 86 ft 136 kts 41°
2026-04-14 22:21 43.65843 7.21316 27 ft 115 kts 44°
2026-04-14 22:21 43.66298 7.21933 22 ft 71 kts 45°
2026-04-14 22:21 43.66604 7.22357 20 ft 52 kts 46°
2026-04-14 22:21 43.66762 7.22459 20 ft 21 kts 322°
2026-04-14 22:22 43.66787 7.22293 22 ft 19 kts 230°
2026-04-14 22:22 43.66687 7.22155 21 ft 21 kts 226°
2026-04-14 22:22 43.66597 7.22022 21 ft 12 kts 239°
2026-04-14 22:22 43.66625 7.21921 21 ft 13 kts 315°
2026-04-14 22:23 43.66614 7.21815 21 ft 13 kts 227°
2026-04-14 22:23 43.66556 7.21734 23 ft 11 kts 225°
2026-04-14 22:23 43.66506 7.21663 21 ft 10 kts 225°
2026-04-14 22:23 43.66484 7.21632 21 ft 1 kts 225°
2026-04-14 22:24 43.66470 7.21603 21 ft 5 kts 259°
2026-04-14 22:24 43.66489 7.21557 22 ft 7 kts 318°
2026-04-14 22:24 43.66500 7.21540 21 ft 0 kts 312°
2026-04-14 22:24 43.66505 7.21533 21 ft 0 kts 314°